• Processing (Info)

  • MPEC 2006-S29 : 2006 SS19

    The following Minor Planet Electronic Circular may be linked-to from your own Web pages, but must not otherwise be redistributed electronically.

    A form allowing access to any MPEC is at the bottom of this page.


    Read MPEC 2006-S28 Read MPEC 2006-S30


    M.P.E.C. 2006-S29                                Issued 2006 Sept. 20, 11:00 UT
    
         The Minor Planet Electronic Circulars contain information on unusual
             minor planets and routine data on comets.  They are published
       on behalf of Commission 20 of the International Astronomical Union by the
              Minor Planet Center, Smithsonian Astrophysical Observatory,
                              Cambridge, MA 02138, U.S.A.
    
                      Supported in part by the Brinson Foundation
                      Supported in part by the TABASGO Foundation
                 Prepared using the Tamkin Foundation Computer Network
    
                                  MPC@CFA.HARVARD.EDU
              URL http://cfa-www.harvard.edu/iau/mpc.html  ISSN 1523-6714
    
                                       2006 SS19
    
    Observations:
         K06S19S* C2006 09 19.37890 02 02 57.26 -04 19 51.7          19.9 V ES029703
         K06S19S  C2006 09 19.38953 02 02 56.79 -04 20 03.1          19.9 V ES029703
         K06S19S  C2006 09 19.40015 02 02 56.14 -04 20 14.1          19.9 V ES029703
         K06S19S  C2006 09 19.41078 02 02 55.71 -04 20 25.6          19.6 V ES029703
         K06S19S  C2006 09 20.07483 02 02 26.25 -04 32 18.4                 ES029J95
         K06S19S  C2006 09 20.07900 02 02 26.01 -04 32 22.0                 ES029J95
         K06S19S IC2006 09 20.08323 02 02 25.68 -04 32 27.3          19.4 R ES029J95
         K06S19S  C2006 09 20.43023 02 02 09.72 -04 38 31.6          19.8 V ES029703
         K06S19S  C2006 09 20.43220 02 02 09.57 -04 38 34.0          19.7 V ES029703
         K06S19S  C2006 09 20.43628 02 02 09.40 -04 38 37.8          19.4 V ES029703
    
    Observer details:
    703 Catalina Sky Survey.  Observers A. R. Gibbs, E. J. Christensen.  Measurers
        E. C. Beshore, E. J. Christensen, G. J. Garradd, A. R. Gibbs, A. D. Grauer,
        R. E. Hill, R. A. Kowalski, S. M. Larson, R. H. McNaught.  0.68-m Schmidt
        + CCD.
    J95 Great Shefford.  Observer P. Birtwhistle.  0.40-m f/6.0 Schmidt-Cassegrain
        + CCD.
    
    Orbital elements:
    2006 SS19                                                Earth MOID = 0.1947 AU
    Epoch 2006 Sept. 22.0 TT = JDT 2454000.5                MPC
    M  21.37630              (2000.0)            P               Q
    n   0.23287719     Peri.  144.52374     +0.46909271     +0.87908334
    a   2.6164840      Node   153.15078     -0.84736988     +0.47502035
    e   0.5480891      Incl.   10.80178     -0.24882991     +0.03959994
    P   4.23           H   18.8           G   0.15           U   9
    Residuals in seconds of arc
    060919 703  0.2+  0.3-    060920 J95  0.9+  0.5-    060920 703  0.1-  0.4-
    060919 703  1.0+  0.3-    060920 J95  0.4+  0.3+    060920 703  0.5+  0.1+
    060919 703  1.0-  0.1+    060920 J95  1.4-  0.5-
    060919 703  0.4+  0.0     060920 703  0.7+  0.1-
    
    Ephemeris:
    2006 SS19                a,e,i = 2.62, 0.55, 11                  q = 1.1824
    Date    TT    R. A. (2000) Decl.     Delta      r     Elong.  Phase     V
    2006 09 12    02 07.16   -02 03.0    0.588    1.497   138.1    26.7    19.7
    2006 09 22    02 00.91   -05 05.7    0.616    1.562   148.4    19.7    19.7
    2006 10 02    01 51.35   -07 40.7    0.659    1.629   157.2    13.8    19.7
    2006 10 12    01 40.66   -09 32.1    0.721    1.697   161.4    10.8    19.9
    2006 10 22    01 30.84   -10 33.8    0.803    1.767   158.2    12.1    20.3
    2006 11 01    01 23.38   -10 48.0    0.905    1.836   150.8    15.3    20.7
    2006 11 11    01 19.01   -10 23.4    1.025    1.906   142.1    18.6    21.2
    2006 11 21    01 17.77   -09 30.1    1.161    1.975   133.4    21.3    21.6
    2006 12 01    01 19.46   -08 16.4    1.311    2.044   125.0    23.3    22.0
    
    Timothy B. Spahr             (C) Copyright 2006 MPC           M.P.E.C. 2006-S29
    

    Read MPEC 2006-S28 Read MPEC 2006-S30


    MPEC number:

    Enter an MPEC number in one of the following forms:

    • 1997-B01 (the full form)
    • J97B01 (the packed version of the full form)
    • B01 (the abbreviated form)